Location: Beaufort Park
(39.1418°N, 76.9433°W)
Time: 23:04:47
(UTC+00:00)

Cosmos 2058 Rocket - Pass Details

Date: 29 October 2020
Orbit: 610 x 640 km, 82.5° (Epoch: 03 December)

Event Time Altitude Azimuth Distance (km) Brightness Sun altitude
Rises 23:06:50 0° 193° (SSW) 2,912 6.8 -11.6°
Reaches altitude 10° 23:09:04 10° 196° (SSW) 2,012 6.0 -12.1°
Maximum altitude 23:13:30 65° 278° (W) 703 3.6 -12.9°
Drops below altitude 10° 23:18:00 10° 1° (N) 2,038 5.6 -13.8°
Sets 23:20:17 0° 5° (N) 2,952 6.4 -14.2°
